Satellite-Ground Cal/Val Region Overpasses Predictions

Prediction of Satellite NPP Overpassing Cal/Val Region: PacNW

Region Location: (Latitude: 10.00, Longitude: 139.50) to (Latitude: 22.70, Longitude: 165.60).

Table of predicted overpasses for the next 14.0 days since TLE Epoch: 8/30/2019
Interval Starting Time Starting Location Ending Time Ending Location
1 08/31/2019 03:36:47 ( 10.00, 145.58) 08/31/2019 03:40:23 ( 22.68, 142.56)
2 08/31/2019 14:30:16 ( 11.80, 165.59) 08/31/2019 14:30:46 ( 10.04, 165.18)
3 08/31/2019 16:08:41 ( 22.65, 142.81) 08/31/2019 16:12:16 ( 10.03, 139.81)
4 09/01/2019 03:17:46 ( 10.02, 150.34) 09/01/2019 03:21:21 ( 22.64, 147.33)
5 09/01/2019 15:49:39 ( 22.69, 147.58) 09/01/2019 15:53:15 ( 10.01, 144.56)
6 09/02/2019 02:58:44 ( 10.04, 155.09) 09/02/2019 03:02:19 ( 22.67, 152.08)
7 09/02/2019 15:30:37 ( 22.67, 152.33) 09/02/2019 15:34:12 ( 10.05, 149.33)
8 09/03/2019 02:39:42 ( 10.01, 159.86) 09/03/2019 02:43:18 ( 22.69, 156.84)
9 09/03/2019 15:11:36 ( 22.65, 157.09) 09/03/2019 15:15:11 ( 10.03, 154.08)
10 09/04/2019 02:20:41 ( 10.03, 164.61) 09/04/2019 02:24:16 ( 22.65, 161.60)
11 09/04/2019 14:52:33 ( 22.69, 161.85) 09/04/2019 14:56:09 ( 10.01, 158.84)
12 09/05/2019 03:43:09 ( 10.06, 143.99) 09/05/2019 03:46:44 ( 22.68, 140.98)
13 09/05/2019 14:34:42 ( 18.56, 165.60) 09/05/2019 14:37:07 ( 10.05, 163.60)
14 09/05/2019 16:15:02 ( 22.66, 141.23) 09/05/2019 16:17:03 ( 15.56, 139.51)
15 09/06/2019 03:24:07 ( 10.02, 148.75) 09/06/2019 03:27:42 ( 22.64, 145.75)
16 09/06/2019 15:55:59 ( 22.70, 146.00) 09/06/2019 15:59:35 ( 10.02, 142.98)
17 09/07/2019 03:05:05 ( 10.04, 153.51) 09/07/2019 03:08:40 ( 22.67, 150.50)
18 09/07/2019 15:36:58 ( 22.67, 150.75) 09/07/2019 15:40:33 ( 10.05, 147.75)
19 09/08/2019 02:46:03 ( 10.01, 158.27) 09/08/2019 02:49:39 ( 22.69, 155.26)
20 09/08/2019 15:17:56 ( 22.65, 155.51) 09/08/2019 15:21:31 ( 10.03, 152.50)
21 09/09/2019 02:27:01 ( 10.03, 163.03) 09/09/2019 02:30:36 ( 22.66, 160.02)
22 09/09/2019 14:58:54 ( 22.69, 160.27) 09/09/2019 15:02:30 ( 10.01, 157.25)
23 09/10/2019 02:10:39 ( 19.39, 165.59) 09/10/2019 02:11:35 ( 22.68, 164.78)
24 09/10/2019 03:49:29 ( 10.00, 142.42) 09/10/2019 03:52:58 ( 22.27, 139.50)
25 09/10/2019 14:39:52 ( 22.66, 165.03) 09/10/2019 14:43:27 ( 10.05, 162.02)
26 09/10/2019 16:21:22 ( 22.66, 139.65) 09/10/2019 16:21:32 ( 22.07, 139.50)
27 09/11/2019 03:30:27 ( 10.03, 147.17) 09/11/2019 03:34:02 ( 22.65, 144.17)
28 09/11/2019 16:02:20 ( 22.69, 144.42) 09/11/2019 16:05:56 ( 10.02, 141.40)
29 09/12/2019 03:11:26 ( 10.05, 151.93) 09/12/2019 03:15:01 ( 22.68, 148.92)
30 09/12/2019 15:43:19 ( 22.67, 149.17) 09/12/2019 15:46:54 ( 10.05, 146.17)
31 09/13/2019 02:52:23 ( 10.02, 156.69) 09/13/2019 02:55:58 ( 22.64, 153.69)


NCC Satellite Cal/Val Overpasses Prediction Service
